Starlink 36433

operational
NORAD ID: 67501 Int'l Des: 2026-012 Owner: SPXS Country: US Constellation: starlink
LEOCIRCULAR

About Starlink 36433

Description loading...

Live Position

Loading 3D Globe...

Upcoming Passes

Altitude History

Altitude vs Time

uPlot chart will show altitude changes over time

Two-Line Element Set

1 67501U 26012J 26047.58335648 -.02148433 00000-0 -78320-1 0 9999
2 67501 42.9997 73.5889 0001211 305.2391 68.1932 15.30982414 5684
Epoch: Feb 16, 2026 • Age: 9 hours

Current Status

Altitude 489.3 km
Velocity 7.62 km/s
Sub-Earth Point -39.83°S, 123.9°W
Launch Date Jan 18, 2026
Age 28 days
Type internet

Technical Details

Classification Payload
Mass 575.00 kg
Dry Mass 530.00 kg
Total Mass 575.00 kg
Length 0.30 m
Diameter 4.10 m
Span 29.00 m
Shape Box + pan
Manufacturer SPXS
Bus Type Starlink V2MO
Phase Status In Orbit
Owner/State SPXS/US

Large Constellations

Loading constellations...